ECMWFFLT2_prec_cthk_141.txt.gz
RH
61 61 62 67 72 73 75 74 76 83 83 83 85 82 82 82 83 86 87 89 91 90 88 88 88 86 87 91 95 98 97 96 94 92 89 85 82 78 75 73 71 74 76 77 79 75 70 66 62 57 54 48
59 61 61 65 68 75 85 87 87 89 87 87 89 87 86 88 88 87 87 88 90 90 89 89 90 88 86 86 89 92 92 93 94 95 92 89 86 83 82 77 73 76 78 79 80 77 69 62 59 55 51 47
50 55 60 66 70 80 95 96 92 92 92 91 92 93 93 93 90 87 87 86 85 86 87 88 89 89 87 85 85 84 84 85 90 93 91 91 88 84 85 81 78 79 79 80 78 75 68 60 59 55 51 48
44 50 58 68 78 87 94 95 92 91 92 92 92 94 94 92 89 87 87 86 83 82 83 84 85 85 84 83 81 79 78 77 81 85 86 88 86 85 89 88 85 83 82 82 76 71 68 63 61 58 53 50
44 52 58 65 80 90 92 94 95 93 93 92 90 93 94 92 89 87 88 87 84 82 78 77 77 77 76 75 74 75 75 73 74 75 77 80 80 82 89 90 89 86 84 84 78 72 69 64 62 60 57 53
40 50 60 64 71 85 93 95 96 93 93 94 92 92 92 92 91 90 90 88 85 83 79 76 74 73 73 72 73 75 73 71 71 71 72 73 74 78 84 87 88 87 85 84 80 74 70 65 61 60 59 56
36 42 54 63 69 79 87 90 94 94 94 96 94 93 92 91 91 91 91 90 87 84 81 80 79 76 75 76 78 75 71 71 70 69 67 66 68 73 78 81 82 84 84 82 79 72 69 66 61 59 60 59
34 36 42 56 73 82 78 77 85 90 94 96 94 93 93 91 91 90 88 89 88 86 84 84 85 83 80 82 82 76 72 72 69 66 64 61 62 64 68 70 72 75 75 75 74 70 67 65 62 61 62 61
32 34 36 45 68 82 77 78 85 86 90 94 93 93 92 90 90 91 90 90 89 87 88 88 89 89 86 85 81 76 75 75 70 67 65 64 62 60 59 60 62 63 64 67 69 68 66 64 61 60 61 60
31 32 34 37 50 64 67 73 80 79 81 85 87 91 92 91 90 91 91 91 90 90 90 89 90 90 89 88 83 78 78 77 75 71 67 66 65 63 60 59 58 58 59 62 64 66 66 65 62 58 59 58
32 32 34 35 36 43 51 62 69 67 72 79 84 89 90 90 91 92 92 91 90 91 90 89 90 89 89 90 85 81 80 80 79 77 71 67 65 65 65 62 61 60 60 61 62 62 63 64 62 59 58 58
34 34 35 37 35 35 39 50 61 67 75 83 86 85 84 87 90 90 90 91 90 89 90 90 90 89 90 90 85 82 83 82 82 81 77 71 68 67 66 66 65 65 63 63 63 62 62 63 63 62 61 62
33 35 37 39 40 37 34 38 49 63 78 87 89 86 82 84 88 90 89 90 91 89 88 90 90 90 90 89 86 83 82 83 83 83 80 76 74 73 71 69 67 68 68 67 67 66 65 64 64 65 66 67
32 35 38 41 44 42 37 36 43 51 61 71 80 81 77 78 84 90 90 89 89 88 88 89 90 91 91 91 88 84 82 82 82 82 81 78 77 79 78 77 74 72 72 71 71 70 69 68 66 66 67 68
32 34 39 43 49 51 44 39 42 44 46 53 65 72 73 75 78 82 85 86 86 86 88 91 91 91 92 92 90 87 82 81 82 81 82 81 80 81 81 81 82 80 78 76 75 74 74 73 71 70 69 70
35 36 40 44 49 56 53 46 42 43 46 49 58 66 68 66 68 74 80 84 87 86 88 91 92 92 92 92 92 90 85 81 80 81 81 81 80 80 80 80 81 81 80 79 79 79 78 76 75 74 74 73
36 38 40 44 52 62 63 57 49 45 47 49 52 61 68 70 75 82 85 86 89 89 90 92 91 91 92 92 93 91 88 84 82 81 82 81 79 78 78 77 77 77 77 76 77 78 78 78 77 76 75 74
38 39 39 43 57 68 67 61 57 51 47 47 50 57 66 74 81 89 94 92 92 89 89 92 92 91 92 92 93 92 90 88 85 82 81 79 77 75 75 74 72 71 71 71 72 73 74 75 76 77 77 76
38 40 40 42 50 60 63 61 59 57 52 48 47 52 60 68 75 83 90 92 93 92 91 93 94 93 93 92 93 93 91 91 87 82 78 76 75 72 70 70 69 69 68 68 69 69 70 70 71 73 74 75
38 40 41 43 45 52 60 64 64 63 61 55 49 49 55 64 71 74 78 82 87 91 92 94 95 95 95 94 94 94 92 91 89 84 80 78 75 72 68 66 65 65 65 67 68 69 68 68 68 69 71 72
37 40 41 43 46 52 57 62 69 70 66 64 59 53 51 55 63 69 74 79 84 88 90 93 95 97 97 97 96 95 94 93 92 90 86 82 78 74 69 66 64 64 64 64 65 65 66 66 68 69 71 71
33 39 42 43 45 52 55 56 63 67 66 67 69 64 58 53 54 60 67 74 81 85 88 91 95 99 99 99 98 96 95 94 94 94 92 88 84 79 75 73 73 72 69 65 63 62 62 63 65 66 68 70
26 36 44 45 44 46 51 53 55 60 65 69 71 73 70 64 58 55 57 65 73 77 82 87 92 96 97 98 99 98 96 95 94 96 96 94 91 88 83 81 82 80 75 71 67 63 60 59 60 60 62 64
20 29 42 48 48 45 45 51 55 59 71 77 75 76 77 74 71 65 60 61 64 67 76 83 85 88 90 93 98 99 97 96 96 96 97 97 96 94 91 88 86 85 82 78 73 67 62 58 57 57 57 58
19 22 32 41 47 46 44 49 54 59 71 78 78 80 79 77 78 75 72 69 63 63 72 80 83 84 85 86 92 97 97 97 97 97 98 98 97 97 95 94 92 90 89 84 77 72 68 63 59 56 56 55
26 24 27 34 41 44 43 45 48 53 60 67 74 84 84 80 81 82 80 78 75 72 71 75 79 80 81 82 87 92 96 98 99 98 98 99 99 98 98 98 96 96 96 92 83 77 75 70 64 60 57 55
27 28 29 33 37 42 44 42 42 46 51 56 62 75 82 79 82 85 84 83 84 83 79 75 75 75 78 80 82 85 89 94 98 99 98 98 97 97 98 99 99 98 99 97 90 85 79 73 69 64 57 55
21 24 26 29 33 38 42 44 43 43 45 50 52 59 67 70 74 80 84 86 86 86 85 83 81 79 79 80 78 78 78 81 87 93 97 98 98 98 97 98 99 99 99 99 96 92 85 78 74 66 60 61
21 21 22 23 26 29 33 37 42 43 44 47 49 52 56 60 64 69 77 84 86 86 87 87 87 84 83 82 79 76 75 75 78 83 88 91 94 96 97 97 99 100 99 99 98 95 90 84 79 72 70 71
24 23 23 23 23 23 25 27 32 38 41 41 44 50 54 58 59 60 68 76 80 84 87 89 91 89 86 85 84 82 79 76 75 77 81 83 84 86 89 92 96 99 100 99 99 98 94 90 85 80 78 76
27 26 25 24 24 24 24 24 25 28 33 35 36 42 48 53 54 53 57 65 71 75 80 86 90 94 94 91 87 86 85 81 77 76 78 79 80 81 83 84 87 93 99 100 97 97 97 95 92 87 83 80

ECMWFFLT2_prec_cthk_144.txt.gz
RH
30 33 35 34 37 43 46 50 54 58 65 73 80 84 85 88 90 90 89 88 90 89 89 91 89 89 91 89 90 91 92 94 95 93 91 87 86 86 82 77 75 72 72 72 70 72 75 78 76 72 70 65
29 32 35 34 34 39 42 46 52 55 60 69 78 82 85 90 91 89 90 90 91 90 87 90 90 89 92 92 92 92 91 92 92 94 95 91 89 89 87 84 81 76 75 74 72 71 72 75 75 73 70 62
29 33 35 36 37 39 40 47 58 64 68 74 82 86 87 88 90 90 91 91 91 90 87 89 91 90 92 93 92 93 94 93 91 93 95 92 90 91 91 89 87 83 79 79 77 72 68 68 68 69 69 62
28 31 35 37 38 38 41 48 59 71 81 87 91 92 90 86 88 91 92 93 92 91 88 88 92 91 92 93 91 91 95 95 92 91 90 87 87 90 92 91 91 87 82 81 79 75 69 64 62 62 61 56
25 28 32 35 37 38 41 48 56 70 84 88 90 91 90 88 87 91 93 94 93 92 90 89 92 92 92 93 89 88 90 90 88 85 84 83 82 85 89 90 91 91 88 85 81 78 72 66 64 61 54 49
25 26 28 33 37 39 42 47 52 65 80 86 88 87 88 89 90 90 91 92 93 92 91 90 93 93 92 92 89 88 86 83 82 82 81 80 78 80 86 88 91 93 93 91 86 80 74 70 66 60 52 49
25 26 26 29 35 42 48 50 52 64 82 90 91 89 89 91 92 91 91 93 93 92 90 90 92 94 92 91 90 88 86 81 82 82 81 81 78 79 83 86 90 92 93 95 92 86 79 73 68 61 56 55
25 27 27 27 30 41 50 52 59 70 82 88 88 88 90 91 94 94 92 92 93 91 90 88 89 91 91 91 91 90 88 84 84 86 83 82 80 78 81 84 86 86 89 92 94 92 86 81 76 69 61 59
25 26 28 28 27 33 44 52 62 67 69 76 80 85 90 91 92 91 90 91 91 90 89 87 87 89 89 90 92 92 93 88 85 87 83 78 78 78 81 84 83 81 83 85 87 89 88 88 86 78 69 63
27 27 27 29 27 27 35 43 52 59 65 71 73 76 82 83 84 86 90 92 89 88 88 87 88 88 87 89 93 94 94 89 85 83 79 76 76 76 78 81 81 79 79 79 80 81 81 84 85 81 74 70
29 28 28 30 31 29 33 37 42 50 58 64 64 67 74 73 77 85 89 90 89 87 87 88 88 87 87 88 91 92 90 87 85 81 77 76 75 76 77 78 77 75 75 75 75 75 74 75 76 75 72 72
28 30 30 29 32 34 35 38 42 43 45 51 56 65 74 71 76 90 92 90 88 85 85 90 90 88 88 88 87 88 88 87 85 82 79 77 76 76 80 81 77 74 72 72 72 72 72 71 71 69 67 68
28 30 31 30 31 33 35 40 42 41 40 44 51 56 62 63 70 87 93 92 90 87 86 88 90 89 87 86 86 86 87 87 86 84 83 80 77 76 79 81 80 77 75 74 73 74 76 76 75 74 70 66
31 31 33 33 33 32 36 44 45 44 43 43 47 50 53 57 64 79 90 93 93 91 89 87 87 88 86 86 87 88 87 86 86 87 86 85 82 79 80 81 79 78 77 76 75 76 78 79 80 80 78 74
34 34 34 35 36 36 38 45 49 48 47 47 47 47 51 57 62 72 81 86 92 93 91 88 82 82 86 89 89 89 89 87 86 87 87 86 84 81 82 86 85 82 80 79 78 79 79 79 79 80 80 78
34 35 35 35 37 39 39 44 53 53 50 51 51 48 50 55 60 65 71 78 87 92 90 85 79 79 85 90 90 91 90 89 87 86 85 85 84 81 81 85 87 87 87 86 84 83 82 81 79 78 77 77
35 35 35 36 36 39 41 44 55 60 55 55 58 56 52 53 60 66 70 74 80 84 86 85 82 79 83 86 88 92 92 91 89 87 86 86 84 81 82 84 84 84 86 88 89 89 88 86 83 80 78 77
33 35 35 36 36 38 41 43 53 63 62 60 62 63 60 55 57 62 64 69 74 77 80 84 87 85 85 86 86 91 94 93 92 91 90 88 85 82 82 83 83 82 82 83 86 88 89 89 87 84 82 80
24 29 32 33 35 36 40 43 49 59 64 66 65 63 65 60 54 55 58 63 68 72 77 80 88 93 92 91 90 93 95 94 95 94 93 91 87 83 81 82 82 81 80 80 81 83 84 86 85 84 83 81
16 19 23 27 30 31 35 40 46 54 60 70 72 64 63 64 59 56 56 62 64 68 77 79 84 93 96 94 94 96 97 96 97 97 97 95 91 87 83 82 82 80 77 76 76 77 77 78 79 79 79 79
15 15 16 21 27 29 29 32 39 47 54 66 72 65 63 63 62 62 57 60 64 64 71 78 81 87 92 94 95 98 98 97 98 99 99 98 96 93 88 84 82 78 75 73 71 71 71 71 71 72 73 74
18 17 16 17 22 28 30 30 31 36 45 55 63 66 68 66 67 72 67 62 64 63 66 76 80 80 83 87 91 97 100 99 99 99 100 100 99 98 95 90 86 80 75 72 71 70 70 68 67 68 69 69
27 24 22 20 21 26 32 34 30 29 34 43 54 61 67 74 78 80 77 69 67 66 65 72 78 79 81 84 85 89 96 99 99 99 100 99 99 99 99 97 93 89 82 75 72 70 67 65 65 64 65 65
33 32 30 28 27 29 35 38 35 32 32 35 44 50 55 68 79 83 81 74 70 71 69 68 71 77 83 86 84 83 88 95 97 99 100 98 98 98 98 100 98 97 91 82 74 70 66 63 62 61 61 61
28 30 32 33 32 33 38 43 42 39 37 35 37 41 44 51 64 76 78 70 68 72 72 70 69 71 78 83 86 85 85 89 93 97 100 99 99 99 99 100 100 100 97 90 81 76 74 71 67 64 60 58
23 24 25 28 30 31 35 42 46 45 43 41 38 38 40 43 50 58 64 66 72 74 74 77 76 72 71 73 78 84 84 84 88 95 100 101 99 99 99 100 100 100 99 97 92 88 87 84 80 73 66 61
24 25 24 24 25 26 28 32 37 41 43 44 44 42 42 43 44 47 55 65 72 75 75 78 81 79 77 74 73 78 81 82 85 92 97 99 101 100 99 100 100 99 100 99 98 97 95 93 91 86 78 71
29 29 29 28 27 26 26 26 27 31 33 36 40 45 47 46 43 43 53 64 68 71 73 74 80 82 80 80 79 76 77 78 80 86 90 91 95 97 97 99 100 99 100 100 99 99 99 98 97 93 88 81
37 36 35 34 32 31 28 27 27 26 27 27 29 35 44 49 46 41 45 56 64 67 68 72 82 86 82 82 84 82 80 79 77 80 88 90 88 87 91 97 100 100 100 100 100 100 99 99 98 96 94 90
40 40 40 39 38 36 34 31 30 28 27 26 25 26 31 39 45 43 39 43 53 61 63 68 79 88 88 84 86 86 85 84 81 79 86 91 88 85 87 92 97 100 99 99 100 100 99 98 97 96 95 94
35 37 38 39 39 39 37 36 33 32 31 30 28 27 26 28 33 40 40 37 41 49 54 60 70 82 85 84 88 92 90 88 87 84 84 86 85 83 82 83 87 94 99 99 98 99 100 99 98 97 95 95

ECMWFFLT2_prec_cthk_150.txt.gz
RH
11 11 14 17 19 21 23 23 25 27 27 27 28 28 30 30 35 43 46 50 55 61 68 76 91 94 87 90 92 92 92 93 95 99 100 98 94 90 89 89 91 91 91 91 87 84 83 81 77 72 71 73
10 10 12 16 18 21 24 24 25 28 28 30 31 29 35 42 50 57 58 59 60 63 70 75 82 85 88 92 92 94 92 91 94 97 99 97 92 89 87 87 88 87 87 91 90 86 85 85 80 72 73 75
10 10 12 17 19 21 23 24 25 28 28 31 31 31 41 54 63 66 64 64 65 66 74 80 80 78 83 89 91 94 95 95 98 98 99 96 94 93 91 89 90 89 88 91 91 87 86 86 84 76 71 71
11 11 13 17 21 22 24 25 27 28 28 30 31 32 41 58 74 80 74 70 68 69 75 80 81 81 83 88 90 92 94 97 99 99 98 95 95 96 94 92 92 94 93 93 93 91 90 88 87 80 71 68
11 12 14 18 22 24 25 26 28 29 29 30 30 31 37 53 74 86 86 82 76 71 72 73 78 82 84 88 90 91 94 98 99 99 97 95 95 95 93 93 94 96 94 94 94 95 94 92 90 86 78 71
12 13 16 20 23 25 27 28 29 29 29 30 31 32 35 44 59 76 88 91 86 79 75 74 78 84 84 86 87 90 93 98 101 98 96 97 96 94 93 94 96 95 91 90 93 95 97 97 94 93 90 82
15 16 19 22 24 26 27 28 30 30 30 30 31 33 35 41 51 65 82 90 92 88 80 77 81 85 84 83 85 87 88 95 100 99 97 97 97 94 91 92 94 93 89 90 94 94 95 97 96 95 93 88
17 19 22 24 25 27 28 29 30 31 31 30 32 33 35 42 49 56 66 76 86 90 88 86 86 86 85 85 87 87 89 94 99 100 99 97 96 94 92 91 91 91 90 91 94 95 94 92 92 91 88 84
21 22 24 25 27 28 30 30 31 31 32 31 31 32 34 43 51 55 56 59 69 81 89 92 94 94 91 90 91 90 92 96 98 98 98 97 94 93 95 93 90 90 90 90 93 96 95 93 88 83 79 78
24 25 26 26 28 30 31 32 32 32 33 32 32 32 34 40 47 52 54 52 53 65 75 80 89 95 94 92 92 92 94 96 96 96 96 94 92 92 92 93 91 90 89 89 92 95 94 95 92 84 78 76
23 24 26 28 29 29 31 32 33 33 33 33 32 34 35 35 37 44 50 48 47 55 63 69 78 88 92 91 91 90 93 95 95 94 93 90 89 89 89 92 94 92 91 89 91 95 94 93 93 88 82 78
19 20 22 25 27 29 29 30 31 32 33 34 33 33 34 35 37 42 45 43 46 50 54 62 69 78 83 85 87 89 92 95 97 96 92 88 86 86 88 92 95 94 92 90 92 96 95 94 94 91 87 82
16 17 18 20 22 24 26 28 28 29 30 32 34 34 34 36 38 41 44 44 49 50 51 54 58 68 75 75 78 83 89 93 95 95 90 86 85 85 86 88 90 91 88 88 92 94 95 94 94 93 91 88
15 16 17 18 18 18 20 22 25 26 27 29 31 33 33 35 38 41 44 46 48 50 50 48 49 58 67 70 71 74 82 85 86 88 85 83 85 87 85 84 86 84 82 85 90 91 92 93 93 93 91 91
17 17 17 17 17 17 17 17 19 21 23 25 27 29 31 34 38 42 46 48 50 50 49 46 47 51 56 63 67 68 73 76 78 79 79 79 85 89 86 83 84 82 79 81 87 88 88 90 91 93 92 90
19 19 18 18 18 18 18 17 17 17 18 20 22 25 27 30 34 42 51 56 56 56 53 50 50 50 49 53 61 68 70 70 72 74 75 79 84 88 88 85 84 83 81 81 87 88 87 87 89 92 92 88
18 18 19 19 19 20 20 20 19 18 17 17 17 19 23 27 28 36 51 57 58 59 57 55 55 53 50 51 58 70 73 71 72 72 72 80 86 87 87 88 86 83 81 82 88 91 90 87 86 87 87 86
19 19 19 18 19 20 20 21 21 20 20 18 17 17 18 23 26 31 41 50 55 59 58 57 59 57 55 56 60 67 72 73 76 75 72 77 87 90 88 89 90 87 83 82 87 93 93 91 88 86 84 84
20 20 21 21 20 21 20 21 21 22 22 21 20 19 18 19 23 29 35 41 46 53 57 59 59 59 59 62 63 64 66 69 74 76 74 74 81 88 90 92 95 94 89 87 89 93 96 94 90 88 86 84
15 16 18 20 21 22 22 22 23 22 23 22 21 21 21 20 20 25 32 38 39 43 50 56 60 61 61 64 66 65 65 67 73 76 75 74 75 80 83 87 94 96 93 91 89 92 97 96 93 90 88 87
10 11 12 14 16 18 20 21 23 24 24 25 24 23 22 22 21 21 25 33 38 40 42 49 62 68 68 72 73 70 68 69 72 75 77 78 77 79 79 80 85 88 89 90 88 89 94 96 95 93 90 87
9 10 10 11 12 14 16 17 19 21 23 25 26 26 25 24 23 22 22 25 30 36 40 47 61 68 72 78 79 73 72 77 79 76 77 81 82 86 89 86 84 84 83 86 85 84 88 93 94 93 91 88
9 9 10 11 11 12 13 15 16 17 18 19 21 24 26 27 26 26 25 24 24 27 34 44 55 63 68 74 78 75 75 82 89 83 77 80 84 90 98 95 92 93 88 85 83 79 81 86 90 92 90 89
8 8 8 8 8 9 10 12 13 15 15 16 17 18 20 23 26 28 28 28 27 26 28 34 44 55 64 68 72 75 76 80 85 84 80 80 82 86 94 95 93 96 97 95 89 83 83 83 86 91 90 89
8 7 7 7 7 7 8 8 9 11 12 13 13 14 15 17 20 23 26 29 31 31 30 31 36 48 59 63 68 73 75 77 79 81 81 81 81 82 86 89 90 92 97 101 96 90 91 90 89 91 90 90
10 9 8 9 10 10 10 9 8 9 9 10 10 10 11 13 14 16 19 23 27 30 32 33 34 44 55 60 66 73 76 79 80 80 80 81 81 80 82 85 89 95 98 100 99 94 93 95 96 94 94 95
12 12 12 11 11 12 11 10 10 9 9 10 10 9 9 9 10 11 13 16 20 24 28 32 32 37 48 57 62 68 75 83 86 82 78 79 80 78 79 83 87 95 100 100 99 98 96 95 97 97 96 97
12 13 14 14 13 13 12 12 11 10 10 10 10 10 10 9 9 9 10 11 14 17 21 26 30 31 36 47 56 61 67 77 88 89 80 74 73 72 75 80 84 89 96 100 100 100 100 97 97 97 95 95
12 14 16 18 18 17 16 16 16 14 12 12 11 11 11 11 10 10 9 9 10 13 15 18 25 29 31 35 45 53 58 64 77 91 91 80 73 71 72 75 79 84 90 97 100 99 100 100 99 98 96 95
13 14 18 20 20 20 19 18 18 16 13 13 13 13 13 13 13 12 11 10 9 9 11 13 16 23 28 30 34 43 51 54 62 79 89 88 87 84 82 80 79 81 86 91 98 100 99 100 100 99 98 97
15 16 19 22 22 21 21 21 19 17 15 14 14 14 14 14 14 14 13 12 12 10 10 10 12 15 20 26 29 32 39 45 52 64 72 77 88 93 94 94 89 85 85 88 95 100 100 100 100 99 99 99

ECMWFFLT2_prec_cthk_156.txt.gz
RH
10 10 10 11 11 12 13 16 20 23 26 28 28 29 30 28 28 28 27 27 27 28 30 29 29 29 30 32 36 36 33 30 29 32 37 40 43 51 56 59 67 75 78 78 78 82 83 83 85 85 85 85
11 12 12 13 14 14 15 17 19 22 24 26 27 28 30 30 30 29 28 29 29 31 33 34 35 36 36 39 43 46 43 37 35 37 41 44 43 51 59 59 63 73 83 85 82 83 83 87 90 90 90 91
13 13 13 13 14 14 15 16 18 20 22 24 26 27 27 28 30 29 29 28 29 32 36 40 44 45 47 48 48 52 53 49 46 45 45 48 48 52 61 64 64 72 83 86 85 84 84 90 95 95 96 95
13 13 13 13 13 13 13 13 14 16 18 21 23 25 25 26 27 28 28 27 27 29 34 42 49 50 50 50 49 51 54 57 59 56 52 53 56 58 63 72 72 74 85 88 86 84 82 90 97 97 97 97
14 14 13 13 13 12 12 12 12 12 13 15 18 21 23 24 24 26 26 27 26 26 29 38 48 52 51 50 50 50 52 57 64 65 62 59 63 65 64 78 84 79 85 91 90 87 83 88 93 96 98 99
15 14 14 13 13 12 12 12 11 11 11 12 13 15 18 20 22 22 24 25 25 25 26 31 42 51 54 52 50 53 56 59 64 68 71 67 67 70 65 75 89 88 86 87 90 90 89 91 90 93 96 97
15 14 14 14 13 13 13 12 12 11 11 11 11 11 12 15 17 18 20 22 24 25 25 26 32 42 49 51 49 52 59 66 70 71 74 74 73 75 70 70 83 94 92 86 87 91 92 94 92 92 92 95
15 15 15 14 14 14 13 13 12 12 12 11 11 11 11 11 12 14 15 18 21 23 24 24 26 32 40 46 49 51 56 62 69 73 73 74 76 79 79 73 73 86 94 89 88 91 93 93 93 93 91 93
15 15 15 15 14 14 14 13 13 12 12 12 12 11 11 11 11 11 12 13 16 19 21 23 24 28 36 42 46 49 54 56 59 64 68 69 72 76 83 83 73 73 85 90 89 89 89 90 90 92 93 93
16 16 15 15 15 14 14 13 13 13 12 12 12 12 12 12 12 11 11 11 12 14 17 20 23 26 34 43 45 44 51 57 56 56 60 62 65 71 80 87 82 74 76 85 89 87 87 89 89 89 91 93
16 16 16 16 16 15 15 15 14 14 13 13 12 12 12 12 12 12 12 12 11 11 12 15 18 21 26 36 46 47 47 54 59 57 56 58 60 65 71 78 84 82 77 78 84 86 87 89 90 90 90 93
15 14 15 15 15 15 15 15 16 15 15 14 14 13 13 13 12 12 12 12 12 12 12 12 13 16 18 24 37 47 48 50 56 58 57 56 58 62 68 72 78 85 85 79 80 84 85 87 89 91 92 93
13 13 12 12 12 12 12 12 12 13 13 14 14 13 13 13 12 12 12 12 12 13 12 12 12 12 15 17 24 36 45 48 50 54 56 57 57 60 68 77 83 89 91 86 82 84 86 86 87 88 90 93
11 10 9 8 8 8 8 8 9 9 10 10 11 12 12 13 13 12 11 11 10 11 12 13 13 12 13 14 16 23 33 41 45 49 54 58 58 58 63 75 87 94 96 93 88 88 89 87 85 85 85 87
9 8 7 6 6 6 6 6 6 6 6 7 8 8 10 10 11 12 12 12 10 10 9 10 12 13 13 14 14 16 22 31 38 42 49 55 57 58 58 65 75 83 91 94 93 93 93 92 88 84 81 82
8 7 6 5 5 5 5 5 5 5 5 5 5 5 6 7 8 9 10 11 12 12 11 9 9 10 12 14 14 15 17 23 30 36 42 49 54 57 57 59 62 65 71 82 88 90 90 91 90 88 83 80
7 6 5 5 5 5 5 5 5 5 5 4 4 4 4 4 4 5 6 7 9 11 12 12 11 9 10 12 14 15 16 19 25 31 36 42 49 54 56 58 60 60 60 68 78 82 83 82 83 86 85 80
6 6 6 6 5 5 5 5 5 4 5 4 4 4 4 4 4 4 4 5 5 6 8 10 11 12 11 11 11 13 16 18 24 31 34 36 40 48 54 57 58 60 60 63 70 76 78 76 76 78 79 76
7 7 7 7 7 7 6 5 5 5 5 5 5 4 4 4 4 4 4 4 4 4 5 5 7 9 11 12 12 12 13 16 21 29 37 40 38 40 47 54 57 58 61 63 64 68 74 77 76 73 74 73
8 8 8 8 8 8 8 7 7 6 5 5 5 5 5 5 5 4 4 4 4 4 4 4 4 5 6 8 10 11 12 13 17 23 33 40 42 41 42 47 54 58 62 64 65 67 71 77 78 75 75 75
9 10 10 10 9 8 9 9 10 9 8 7 6 6 5 5 5 5 5 5 5 5 5 4 5 5 5 5 6 8 9 11 13 17 24 32 39 43 44 46 49 54 59 60 64 69 72 77 79 78 77 77
10 10 11 11 10 9 9 10 10 11 11 10 9 8 7 6 5 5 5 5 5 5 6 5 5 5 5 5 5 5 6 7 9 11 16 23 31 37 44 48 48 51 56 55 57 62 69 78 78 74 74 77
11 10 11 11 11 11 10 10 11 11 13 12 11 10 9 7 6 5 5 5 6 6 6 6 6 6 5 5 5 5 5 5 6 7 8 13 22 30 37 45 48 51 55 55 54 55 62 74 76 73 75 77
11 11 11 12 12 12 12 11 11 12 13 13 12 13 12 11 9 6 6 6 6 6 7 7 7 7 6 6 6 5 5 5 5 5 5 6 10 20 31 39 44 49 57 58 56 55 58 68 76 77 80 80
12 12 12 13 13 13 13 13 12 12 13 13 14 15 15 14 12 9 8 7 6 7 7 7 8 8 7 7 7 6 6 6 6 5 5 5 5 10 21 33 40 46 57 61 59 59 59 63 72 78 80 80
13 13 13 14 15 15 15 15 14 13 13 13 15 16 17 16 14 13 11 9 8 8 8 8 8 9 9 8 8 7 7 7 6 6 5 5 5 5 10 24 36 44 55 65 64 63 66 67 67 74 79 81
15 15 15 15 16 16 16 16 15 14 14 14 16 17 17 16 15 15 14 13 11 10 9 9 9 9 9 9 9 8 8 8 7 7 6 5 6 5 5 12 25 37 48 62 67 65 70 76 73 72 77 81
17 17 16 17 18 18 18 17 17 16 15 16 17 18 17 17 17 17 17 16 16 14 12 11 11 11 10 10 10 9 9 9 9 8 8 7 6 6 5 5 13 26 37 49 60 64 69 77 81 80 78 77
19 19 18 18 19 19 19 19 19 18 17 17 18 18 18 18 19 19 19 19 20 20 18 16 13 12 12 11 10 10 10 9 10 10 9 9 8 7 6 5 5 14 27 38 49 60 66 73 82 86 83 77
22 21 20 20 20 20 20 20 20 20 19 18 18 17 18 18 20 21 22 22 23 24 24 22 19 16 15 14 12 11 11 10 10 11 10 9 9 8 7 7 5 6 15 27 39 52 61 69 78 83 84 82
24 23 22 22 22 22 22 22 22 21 20 19 18 18 18 18 20 23 24 25 25 25 26 26 24 22 19 18 16 13 13 12 11 11 12 11 10 10 9 7 8 6 7 13 25 40 52 63 71 76 81 85